Temp_Advection
nan nan nan nan nan nan nan nan nan nan nan nan nan nan nan nan nan nan nan nan nan nan nan nan nan nan nan nan nan nan nan nan nan nan nan nan nan nan nan nan nan nan nan nan nan nan nan
nan -0 0 0 0 0 -0 -0 -0 0 0 0 0 -0 -0 -0 -0 -0 -0 0 -0 0 1 1 -0 -1 -0 -0 -1 -0 -0 -0 -0 -0 -0 -0 -0 -0 0 0 -1 -0 -0 -1 -1 -1 nan
nan 1 1 -0 0 0 -0 -0 0 0 0 0 0 0 -0 -0 -0 -0 -0 -0 -0 -0 1 1 0 0 -1 -1 -0 -0 -0 -0 -0 -0 -0 -1 -1 -0 0 -0 -1 -0 -0 -1 -1 -0 nan
nan 1 1 1 1 -0 0 0 0 0 0 0 0 0 -0 -0 -0 -0 -0 -0 -0 0 1 1 1 0 -1 0 -0 0 0 -0 -0 0 0 -0 -0 0 -0 -0 0 0 -0 -1 -2 -1 nan
nan 0 1 1 0 0 0 0 0 0 0 0 0 -0 -0 -0 -0 -0 -0 -0 -0 0 0 0 1 0 -1 0 -0 0 0 0 -0 -1 -0 -0 -0 -0 1 0 -0 0 0 -1 -3 -1 nan
nan 1 0 2 2 0 0 0 0 0 0 0 0 -0 -0 -0 -0 -1 -1 -0 -0 0 0 0 0 -0 0 -0 -0 -0 -0 -0 0 -0 -1 -0 0 0 0 0 -0 -1 -0 -0 -1 -2 nan
nan 3 2 2 1 0 1 0 -0 0 0 0 -0 -0 -0 -0 -0 -1 -1 -2 -1 -0 -1 0 -0 -0 -1 0 -0 -1 -0 -0 -0 0 0 -0 -0 -0 -1 -0 -0 0 0 -0 -1 -1 nan
nan 2 1 2 1 1 1 -0 -0 -0 0 0 0 -0 -0 0 0 -0 -1 -1 -1 -1 -1 -0 0 -0 -1 1 0 -1 -1 0 0 1 0 -0 -0 -1 -0 0 -0 -0 1 -1 -2 -1 nan
nan 3 2 2 0 1 -0 -0 -0 -0 0 0 0 -0 -0 0 0 -0 0 -0 0 0 -0 -1 -0 -0 -0 0 0 0 -0 0 0 0 0 -0 -1 -0 0 1 -0 -1 -0 0 -1 -2 nan
nan 3 2 1 0 0 -0 -0 0 0 0 0 0 -0 0 0 0 0 0 0 0 0 0 -1 -0 -0 -0 0 -0 -0 0 -0 0 0 0 -0 -0 0 0 0 0 -1 -0 0 -1 -0 nan
nan 2 1 1 1 -0 -0 -0 0 0 0 0 0 0 0 0 0 0 0 0 0 -0 0 -1 -0 -0 -0 -0 0 -0 -0 0 0 -0 0 -0 -0 0 -0 -1 -0 -1 0 -0 -1 -0 nan
nan 2 2 1 1 0 0 0 0 0 0 0 0 0 0 0 0 0 0 0 0 0 -0 -0 -0 -0 -0 -1 -0 0 -1 0 0 0 0 -1 -0 -0 -1 -1 -0 0 0 0 0 0 nan
nan 2 1 1 1 1 1 0 0 0 0 0 0 0 0 0 0 -0 -0 0 0 0 0 -0 -0 -0 -0 -0 -0 -0 -0 -0 -0 0 -0 -0 -0 -1 -0 0 0 0 0 0 -0 -0 nan
nan 2 1 1 1 1 0 0 0 0 0 0 0 0 0 0 0 -0 0 0 0 0 -0 -0 0 -0 -0 -0 -0 -0 -0 -0 0 -0 -0 -0 -0 0 -0 0 0 -0 -0 -0 -0 -0 nan
nan 2 1 1 1 1 -1 0 0 0 0 0 0 0 0 -0 -0 0 -0 0 -0 -0 0 0 -0 -0 -0 -0 -0 -0 -0 0 -0 -0 0 -0 -0 -1 -0 0 -0 0 -0 -0 -0 0 nan
nan 1 1 1 1 0 0 0 0 0 0 0 0 0 0 0 -0 0 0 -0 -0 -0 -0 -0 -0 0 0 -0 -0 -0 -1 0 0 0 0 0 -1 -0 -0 0 0 -0 -0 -0 -0 0 nan
nan 1 1 0 0 0 1 1 0 0 0 -0 0 0 0 -0 0 0 0 -0 -0 -0 -0 -0 -0 0 0 -0 0 0 -1 -1 0 0 0 0 -0 -1 -0 -0 -0 0 -0 0 -0 -0 nan
nan 0 0 0 0 0 1 1 1 1 0 0 -0 0 0 0 -0 -0 0 -0 -0 -0 -0 -0 0 0 0 -0 -0 0 -0 -1 -0 -0 -0 0 0 -0 -0 -0 -0 -0 0 0 -0 -0 nan
nan 0 0 0 0 0 0 1 1 1 0 0 -0 0 0 0 -0 -0 -0 0 -0 -0 -0 0 0 0 -0 0 -0 0 -1 -1 -0 0 -0 -0 0 -0 -0 0 -0 -0 -0 -0 -0 0 nan
nan 0 0 0 0 0 0 1 1 1 0 0 -0 -0 0 0 -0 -0 0 0 -0 -0 -0 0 0 0 0 0 -0 0 -0 -1 -1 -0 0 0 0 -0 -0 0 0 -0 -0 -0 0 -0 nan
nan 0 -0 0 0 0 0 0 0 0 0 0 -0 -0 -0 0 -0 0 0 0 0 -0 -0 -0 -0 0 0 0 -0 -0 -0 -0 -1 -0 -0 -0 -0 -0 -0 -0 0 -0 -0 0 0 -0 nan
nan 0 -0 -0 -0 0 0 0 0 0 0 0 0 -0 0 -0 -0 0 0 -0 -0 -0 0 0 -0 -0 0 0 -0 0 -0 0 -0 -0 -0 0 0 0 0 0 -0 -1 -0 0 -0 -0 nan
nan 0 0 0 -0 0 0 0 0 1 0 0 0 0 0 0 -0 -0 -0 0 -0 -0 -0 0 0 0 -0 -0 0 1 -0 -0 -0 0 -0 -0 0 0 0 0 0 -1 -1 -0 -0 -0 nan
nan -0 0 0 0 -0 0 0 0 1 0 0 0 0 -0 0 0 -0 -0 0 -0 -0 0 -0 -0 0 -0 -0 -1 0 0 -0 -0 -0 -0 -0 0 0 -0 0 -0 -0 -0 -0 -1 -0 nan
nan -0 -0 -0 -0 0 0 0 0 0 1 0 0 0 -0 -0 -0 0 0 0 -0 -1 -0 0 -0 0 -0 -0 -0 -0 -0 0 0 -0 0 0 0 -0 -0 -0 -0 -0 -0 -0 0 -1 nan
nan -0 -0 -0 -0 0 0 0 0 0 0 0 0 0 -0 -1 -0 -0 0 -0 -0 -0 -0 -0 -1 -0 -0 -0 -0 -0 -0 -0 -0 -0 -0 -0 -0 0 -0 -0 -0 -0 -0 -0 0 -1 nan
nan -0 -0 -0 0 0 0 0 0 0 0 0 0 0 0 0 0 -0 -0 0 0 -0 0 -0 -1 -0 -1 -0 0 0 -0 -0 -0 -0 -0 -0 -0 -0 -0 -0 -0 -1 -1 -0 -0 -0 nan
nan 0 0 0 0 0 0 0 0 0 0 0 0 0 0 0 0 0 0 -0 -0 -0 -0 -0 -0 -0 -0 0 -0 -0 -0 -0 -0 -0 -0 -0 -0 -0 -0 -0 -0 -0 -0 -0 -0 -0 nan
nan nan nan nan nan nan nan nan nan nan nan nan nan nan nan nan nan nan nan nan nan nan nan nan nan nan nan nan nan nan nan nan nan nan nan nan nan nan nan nan nan nan nan nan nan nan nan
Wind_Speed
30 29 28 24 21 20 18 16 15 13 12 11 10 10 9 10 11 12 14 17 19 20 23 25 26 25 21 14 13 10 9 14 16 15 18 19 15 16 8 5 13 15 21 27 31 26 34
35 32 33 29 26 23 20 18 15 14 13 13 11 10 10 11 12 14 16 18 19 21 23 22 21 23 18 5 11 14 17 17 17 15 16 19 15 19 20 16 14 10 19 25 30 37 34
41 36 35 32 27 25 23 19 16 16 15 14 12 10 11 12 13 15 17 19 20 21 20 18 18 18 18 13 10 10 19 13 14 16 21 21 24 25 13 8 16 15 14 21 26 26 13
45 40 38 34 30 27 24 20 19 18 17 15 13 11 11 12 13 16 18 20 21 17 18 15 16 15 12 8 7 19 19 18 18 21 26 25 21 31 23 23 22 12 10 14 19 15 18
48 44 42 38 31 30 27 23 20 19 19 16 13 12 11 11 13 16 19 20 17 18 9 10 14 9 9 12 8 20 15 24 23 29 28 26 23 21 23 9 14 13 15 19 26 14 12
54 49 46 40 36 34 30 26 23 22 20 17 13 11 11 10 12 15 18 20 12 3 4 9 0 7 6 14 13 16 21 29 24 21 18 12 11 5 7 4 14 19 11 16 16 22 14
57 53 48 44 38 36 32 28 25 24 20 16 12 11 10 9 8 12 18 20 9 4 16 6 8 6 18 13 16 19 23 30 22 11 1 4 6 11 15 13 18 16 20 18 19 23 18
61 56 53 47 41 39 35 30 26 24 20 15 12 9 9 7 3 6 11 8 8 10 11 6 5 14 16 17 15 26 27 21 11 8 0 4 13 16 18 16 20 20 22 22 20 24 16
64 60 51 46 44 42 37 32 28 24 20 16 11 8 8 6 2 2 2 10 13 10 2 10 6 9 9 17 22 33 23 26 10 13 9 12 13 14 17 18 19 22 21 19 17 22 17
67 60 51 46 44 40 36 30 31 27 21 16 10 9 8 4 5 1 3 11 5 5 3 6 1 2 15 30 7 31 26 10 4 10 10 14 12 17 15 19 17 19 12 14 21 19 11
72 62 55 52 50 43 36 34 30 27 21 16 13 10 7 4 4 3 5 9 1 0 1 11 1 5 30 12 27 5 27 8 13 18 8 15 15 14 14 16 16 21 15 21 18 15 6
71 63 55 47 42 43 38 33 31 25 22 17 14 10 9 7 5 5 10 4 2 3 2 6 11 14 16 19 18 10 26 17 18 7 8 19 18 4 10 16 10 5 3 13 12 6 9
69 61 53 45 43 40 36 34 29 26 20 17 14 10 9 8 3 3 5 2 2 2 5 5 9 14 18 12 12 8 13 7 7 5 4 4 7 7 8 5 3 5 2 3 2 2 4
68 59 50 46 43 41 34 31 29 24 21 17 14 10 9 4 1 3 2 2 2 2 2 4 5 14 6 10 12 11 13 9 10 5 5 4 6 1 3 4 6 2 9 4 4 3 3
64 54 50 49 45 41 35 31 26 24 20 17 12 10 10 4 2 2 1 4 3 1 1 5 8 4 4 9 7 8 8 7 8 12 7 5 5 9 15 15 5 4 6 6 3 4 3
58 53 50 47 38 34 34 29 27 23 20 17 14 11 10 2 1 1 3 4 2 1 3 3 1 0 4 7 8 8 9 6 14 12 12 4 7 4 6 1 7 10 1 2 2 1 2
55 52 45 39 33 30 29 29 25 23 20 17 13 6 8 6 3 1 3 4 2 9 5 2 2 4 6 6 7 5 6 8 13 14 17 4 4 7 5 6 6 4 2 3 1 3 1
49 40 35 35 34 28 26 26 24 23 20 18 11 3 11 9 2 2 2 2 2 5 4 2 1 4 5 4 4 5 4 4 19 17 12 6 3 4 5 6 3 3 3 1 3 0 3
40 36 34 30 29 28 24 25 24 24 23 19 11 6 7 7 3 1 3 1 2 2 2 1 3 6 1 3 3 6 5 11 19 15 9 5 3 4 2 5 5 3 2 2 4 2 3
38 34 30 28 28 24 23 23 23 25 24 17 6 3 4 6 3 5 3 2 2 6 4 4 5 4 2 3 6 6 6 7 30 18 16 6 1 2 5 9 3 7 2 3 4 2 8
32 28 25 25 25 25 22 22 23 24 22 13 5 3 6 2 2 3 4 3 1 2 3 5 4 5 4 4 5 3 5 12 11 5 7 3 2 5 3 8 7 17 8 9 5 7 8
29 27 24 22 22 22 22 21 22 23 19 9 7 4 4 6 11 6 4 5 4 2 2 5 3 9 6 3 5 15 10 4 6 8 5 2 5 6 15 16 21 21 21 22 16 14 13
27 23 20 16 19 21 21 20 23 23 20 7 7 6 4 0 2 4 4 3 1 3 5 4 7 5 5 5 19 26 22 24 11 6 5 6 3 5 2 6 9 14 15 19 20 21 8
25 23 19 21 21 18 18 21 24 21 15 15 12 9 4 1 2 4 6 3 3 4 3 6 12 4 10 25 30 15 8 13 8 9 12 8 5 2 2 5 6 3 10 16 22 18 16
22 23 24 21 19 18 16 21 24 20 18 14 14 7 5 2 1 6 9 3 7 10 5 3 14 15 18 14 4 5 4 3 5 4 7 7 2 2 2 4 7 5 9 6 6 13 15
22 22 23 21 18 15 15 21 24 20 17 13 12 9 4 7 2 3 3 5 2 3 6 4 18 10 16 2 2 3 2 4 2 6 7 7 7 1 1 4 4 4 18 14 6 7 11
21 21 22 19 15 14 17 20 23 21 17 12 10 9 4 5 4 5 3 2 3 2 1 4 13 7 13 3 3 3 3 6 4 6 6 4 3 6 5 4 3 14 21 7 2 2 10
24 24 21 17 15 15 17 18 22 21 16 10 9 9 5 3 3 4 3 2 2 3 2 6 5 6 5 5 3 3 2 3 2 4 3 4 4 4 3 4 3 26 6 5 4 8 8
26 24 21 17 17 15 19 16 18 20 16 10 8 7 6 3 3 3 4 5 7 4 0 2 1 2 3 3 2 2 2 3 4 2 6 4 3 3 5 3 4 12 14 13 10 11 10
Wind_Direction
257 255 253 243 240 239 237 236 243 245 238 234 239 252 273 289 306 319 326 329 326 323 317 312 310 314 327 306 303 325 280 282 290 295 283 284 258 258 235 235 232 232 251 262 267 262 255
255 250 251 245 243 234 234 234 236 246 235 234 242 258 276 289 309 318 320 320 316 317 315 312 312 313 317 308 316 316 306 302 302 302 291 281 263 276 259 261 251 279 284 269 269 256 254
257 248 244 245 237 232 232 228 231 237 234 235 243 258 275 293 306 312 313 314 316 317 306 304 302 305 307 304 345 2 336 330 335 329 321 308 285 266 268 306 285 297 279 278 264 262 271
255 250 246 239 232 228 228 223 227 229 229 235 243 255 273 290 304 310 311 316 320 309 297 291 297 308 287 29 351 356 324 296 288 295 307 305 306 280 259 265 275 291 287 273 270 272 261
244 246 243 237 226 221 221 222 225 225 224 232 241 257 274 292 310 310 312 321 321 308 288 299 287 302 274 5 330 335 334 337 324 303 298 301 294 285 266 272 280 251 264 275 287 275 264
240 230 243 238 220 217 214 217 221 219 220 229 237 256 276 298 314 312 319 328 326 275 278 312 246 286 337 328 342 333 327 333 314 308 301 305 290 274 282 262 255 268 250 264 266 282 262
241 217 222 221 211 213 210 213 220 216 217 226 236 254 279 299 323 326 332 353 6 294 320 271 265 272 303 303 297 300 315 317 316 303 241 309 329 267 268 269 266 265 266 258 264 278 287
241 217 215 217 208 208 205 209 218 213 212 218 232 253 274 307 321 358 350 33 6 329 314 334 295 274 304 305 287 290 311 298 285 258 289 312 250 264 261 285 279 270 266 271 266 263 274
235 215 209 206 202 204 203 203 210 209 209 213 223 246 270 282 182 3 331 14 336 323 267 294 258 271 326 320 294 298 307 300 258 268 247 235 249 288 256 249 261 258 259 256 268 276 270
224 208 203 203 197 204 199 205 204 201 204 208 217 235 251 269 192 223 218 331 331 327 52 314 193 247 342 328 300 318 315 327 276 273 269 257 262 250 258 250 243 265 255 301 271 259 257
215 203 198 198 195 198 196 203 202 198 196 199 214 220 230 208 193 228 316 342 272 182 3 312 14 323 337 344 308 340 329 300 265 264 253 255 277 257 281 259 238 257 246 231 254 248 230
204 197 197 196 193 191 195 200 199 195 194 197 207 209 202 204 221 251 318 300 210 44 282 333 329 326 339 338 325 288 315 273 265 282 226 251 253 221 244 252 243 316 289 267 282 231 243
195 193 190 190 190 187 204 196 192 194 189 197 204 198 195 207 162 329 307 196 44 100 345 357 323 335 328 334 322 317 321 330 12 311 312 289 244 227 194 239 231 206 238 285 335 250 231
192 187 183 185 183 183 201 190 191 185 192 194 193 180 179 183 222 4 301 73 94 46 315 345 331 319 329 350 324 317 332 354 17 8 275 323 323 33 66 250 250 234 190 186 261 167 154
181 181 176 181 180 186 191 188 185 189 187 185 172 170 161 97 37 348 135 64 184 238 306 317 339 351 308 329 339 330 330 345 14 5 359 329 282 308 278 258 175 260 198 223 25 316 61
176 174 173 171 178 183 185 184 186 184 179 169 157 171 181 148 20 260 93 168 165 303 32 8 335 339 305 307 334 331 325 356 343 346 336 286 287 271 296 232 220 237 325 53 4 24 258
164 166 165 169 177 175 178 181 180 178 173 165 162 161 162 200 199 156 143 214 205 38 25 12 204 288 265 298 319 306 284 312 350 329 322 279 195 308 321 35 11 331 18 43 136 131 70
156 157 160 166 171 170 173 173 171 168 165 160 161 114 159 173 133 79 155 199 355 22 18 27 295 242 249 308 285 292 264 280 324 326 331 312 298 272 304 349 65 254 338 38 111 285 183
144 157 162 162 161 169 168 164 165 165 166 152 145 117 164 173 138 297 283 101 90 25 295 267 250 222 66 227 311 211 270 288 314 329 336 341 292 313 273 294 11 349 216 131 83 145 319
152 154 155 158 164 165 160 160 165 167 163 154 138 97 144 202 186 129 111 126 352 320 277 272 242 348 278 288 219 276 331 302 317 303 320 256 238 334 269 287 194 262 9 27 127 32 88
151 156 158 159 163 159 162 159 166 169 165 154 131 184 158 203 270 172 133 184 235 329 311 317 353 320 308 317 312 310 304 322 302 292 335 31 324 293 325 16 89 63 40 55 111 88 82
150 148 144 154 163 163 160 160 166 169 163 149 132 142 152 155 169 178 173 207 193 263 257 288 329 293 279 275 193 298 315 323 263 315 316 2 337 349 78 68 63 63 45 64 70 85 93
147 147 144 148 152 159 158 161 166 164 162 124 129 135 147 119 74 106 205 144 182 302 295 272 318 313 284 265 290 281 268 249 249 294 305 314 3 348 33 319 317 45 34 54 54 43 37
151 151 149 157 158 152 158 163 163 159 155 140 138 141 123 228 112 197 146 135 25 2 243 40 12 347 309 318 311 302 273 249 232 259 223 285 326 325 357 333 51 100 22 62 62 43 30
151 150 149 156 151 151 155 163 159 155 144 152 157 147 132 124 258 38 62 88 40 17 11 70 1 334 337 321 340 340 344 5 6 280 17 242 301 33 331 41 122 51 18 349 32 45 25
155 156 153 153 157 154 160 163 163 161 154 153 152 146 126 130 352 12 108 67 83 336 345 337 347 353 353 22 355 26 355 324 320 315 35 30 28 264 328 55 56 38 330 326 270 66 44
165 166 154 150 152 162 164 162 162 156 148 149 144 159 139 104 88 65 91 115 46 17 249 334 339 331 0 19 32 58 312 337 1 4 347 356 356 28 14 93 78 355 332 332 40 51 53
159 158 156 152 152 153 156 158 162 161 157 154 141 158 166 125 142 122 112 130 115 73 105 325 4 353 3 39 30 328 45 309 311 17 1 29 350 19 353 56 18 355 21 53 105 85 83
151 153 152 148 151 146 155 151 156 166 162 144 131 140 174 181 174 199 228 237 248 269 259 354 173 301 22 60 20 322 348 342 321 350 1 41 42 90 29 83 75 40 65 69 88 78 55
Height
1512 1515 1514 1515 1517 1517 1518 1519 1520 1520 1520 1521 1522 1522 1522 1521 1519 1516 1514 1511 1508 1506 1504 1500 1495 1492 1492 1489 1485 1483 1479 1480 1481 1479 1479 1481 1481 1482 1479 1472 1470 1460 1448 1449 1449 1454 1446
1504 1505 1509 1510 1512 1513 1513 1515 1515 1518 1518 1518 1519 1520 1520 1519 1516 1514 1511 1509 1506 1503 1500 1496 1492 1490 1490 1488 1481 1481 1479 1478 1479 1479 1476 1479 1479 1477 1471 1468 1466 1456 1455 1448 1446 1440 1442
1497 1498 1501 1504 1507 1511 1510 1510 1511 1512 1515 1516 1517 1518 1517 1516 1514 1511 1508 1505 1502 1499 1496 1494 1491 1487 1486 1481 1480 1476 1477 1472 1475 1475 1475 1475 1476 1474 1469 1464 1459 1459 1456 1446 1437 1431 1438
1487 1491 1494 1497 1501 1505 1507 1507 1508 1509 1511 1513 1514 1514 1514 1513 1511 1508 1504 1501 1498 1494 1491 1490 1487 1485 1482 1479 1478 1472 1476 1472 1472 1471 1470 1471 1470 1466 1465 1463 1457 1459 1455 1449 1428 1435 1431
1479 1481 1485 1489 1494 1498 1501 1503 1505 1506 1508 1510 1511 1512 1511 1510 1509 1505 1501 1498 1494 1491 1488 1487 1485 1486 1478 1476 1475 1474 1471 1469 1467 1466 1464 1463 1465 1462 1458 1456 1456 1451 1454 1451 1437 1436 1432
1468 1471 1476 1480 1485 1491 1493 1497 1500 1502 1504 1506 1507 1508 1508 1507 1506 1502 1498 1495 1491 1488 1486 1484 1483 1484 1475 1474 1473 1472 1470 1468 1464 1461 1460 1460 1459 1457 1456 1460 1458 1452 1452 1447 1442 1424 1431
1458 1462 1466 1472 1477 1485 1487 1491 1495 1498 1500 1503 1505 1505 1505 1505 1503 1500 1496 1491 1493 1490 1484 1483 1480 1479 1474 1473 1472 1469 1466 1464 1461 1458 1458 1457 1462 1460 1455 1452 1447 1447 1442 1441 1434 1425 1426
1446 1454 1456 1460 1470 1476 1479 1484 1491 1495 1496 1498 1501 1501 1502 1501 1501 1499 1497 1497 1499 1499 1488 1478 1477 1476 1474 1472 1466 1462 1463 1462 1459 1456 1456 1456 1451 1448 1447 1448 1446 1440 1436 1441 1428 1422 1425
1435 1440 1450 1455 1457 1467 1474 1477 1485 1491 1493 1495 1496 1498 1498 1500 1499 1498 1498 1499 1498 1496 1494 1479 1476 1476 1475 1472 1462 1456 1459 1455 1451 1448 1448 1449 1436 1440 1439 1436 1440 1432 1430 1430 1431 1421 1416
1421 1430 1442 1449 1451 1465 1468 1474 1480 1482 1488 1490 1492 1496 1495 1496 1500 1497 1497 1498 1495 1494 1497 1480 1475 1475 1474 1468 1459 1456 1453 1453 1448 1442 1442 1435 1429 1431 1428 1428 1431 1427 1424 1428 1428 1425 1422
1409 1422 1431 1440 1440 1454 1461 1466 1479 1479 1481 1485 1490 1491 1493 1493 1495 1496 1496 1494 1494 1495 1495 1476 1473 1473 1473 1472 1464 1453 1451 1446 1440 1435 1440 1422 1424 1425 1424 1420 1418 1411 1416 1422 1416 1415 1414
1396 1408 1424 1438 1443 1449 1452 1462 1473 1475 1477 1483 1486 1486 1490 1490 1491 1493 1493 1493 1495 1499 1488 1476 1472 1472 1469 1465 1463 1455 1450 1445 1439 1433 1429 1422 1417 1422 1415 1410 1409 1407 1411 1409 1409 1408 1416
1389 1400 1415 1429 1439 1443 1454 1460 1465 1472 1474 1480 1483 1483 1486 1489 1489 1490 1491 1492 1496 1496 1483 1481 1479 1471 1470 1466 1460 1457 1451 1446 1439 1439 1428 1414 1411 1405 1405 1406 1406 1408 1413 1426 1426 1420 1403
1379 1396 1407 1423 1432 1436 1458 1455 1462 1465 1472 1475 1480 1480 1484 1488 1487 1488 1490 1494 1492 1484 1482 1480 1481 1476 1476 1469 1464 1459 1452 1445 1438 1437 1432 1423 1420 1402 1405 1407 1406 1405 1404 1408 1402 1395 1396
1374 1390 1402 1416 1427 1438 1447 1451 1457 1465 1468 1473 1476 1479 1483 1485 1485 1487 1490 1504 1490 1485 1482 1481 1478 1483 1483 1476 1475 1467 1455 1448 1443 1443 1437 1432 1416 1401 1399 1396 1404 1396 1400 1394 1396 1400 1406
1371 1388 1400 1411 1426 1435 1444 1448 1455 1461 1465 1469 1472 1479 1481 1483 1484 1486 1490 1488 1484 1481 1480 1481 1488 1485 1492 1479 1475 1470 1458 1447 1444 1442 1440 1431 1424 1402 1393 1391 1395 1399 1395 1400 1411 1415 1419
1367 1384 1398 1411 1426 1431 1439 1446 1454 1457 1463 1468 1473 1479 1480 1481 1483 1485 1495 1487 1481 1479 1479 1482 1486 1488 1485 1481 1474 1473 1464 1450 1446 1439 1433 1428 1432 1405 1395 1400 1404 1400 1400 1396 1395 1400 1407
1373 1388 1399 1411 1421 1431 1438 1445 1450 1454 1461 1466 1472 1476 1478 1480 1484 1485 1491 1482 1480 1480 1480 1481 1481 1483 1484 1483 1474 1474 1471 1456 1447 1443 1434 1429 1427 1418 1406 1400 1400 1399 1398 1393 1403 1404 1406
1374 1391 1403 1410 1420 1430 1438 1441 1446 1452 1458 1463 1469 1473 1477 1479 1489 1489 1482 1480 1480 1481 1480 1480 1481 1479 1477 1483 1482 1475 1464 1450 1445 1442 1437 1431 1422 1418 1402 1404 1403 1402 1395 1395 1401 1406 1399
1383 1394 1403 1414 1423 1430 1434 1440 1445 1450 1456 1462 1466 1474 1477 1480 1479 1479 1481 1481 1482 1479 1479 1480 1478 1478 1475 1478 1473 1471 1466 1450 1444 1438 1434 1431 1425 1425 1422 1409 1412 1408 1400 1400 1403 1399 1407
1388 1397 1407 1414 1422 1428 1434 1439 1444 1449 1454 1460 1462 1468 1471 1481 1480 1479 1480 1481 1481 1483 1480 1478 1476 1477 1476 1478 1471 1468 1459 1450 1440 1434 1432 1431 1429 1425 1417 1411 1408 1411 1408 1402 1400 1409 1412
1392 1400 1408 1416 1423 1429 1434 1438 1443 1448 1453 1457 1460 1465 1468 1472 1472 1477 1479 1479 1479 1479 1480 1478 1476 1474 1472 1470 1472 1466 1462 1454 1450 1437 1434 1430 1428 1427 1420 1422 1416 1420 1422 1418 1420 1425 1429
1396 1404 1411 1418 1424 1430 1433 1437 1442 1447 1452 1455 1460 1463 1466 1471 1472 1478 1478 1475 1476 1477 1475 1474 1473 1472 1470 1465 1460 1454 1453 1447 1446 1447 1441 1432 1429 1427 1423 1422 1420 1427 1441 1437 1436 1437 1438
1400 1407 1413 1419 1426 1430 1434 1438 1442 1447 1451 1454 1457 1462 1465 1475 1471 1472 1472 1473 1475 1475 1475 1475 1472 1471 1467 1460 1451 1442 1439 1439 1442 1440 1439 1435 1428 1427 1425 1422 1437 1456 1455 1450 1449 1454 1452
1403 1410 1416 1422 1427 1431 1434 1437 1442 1447 1450 1454 1457 1462 1464 1473 1471 1470 1471 1474 1474 1473 1474 1472 1471 1470 1464 1458 1454 1448 1446 1441 1438 1435 1435 1431 1429 1432 1427 1426 1445 1447 1455 1460 1454 1461 1463
1405 1412 1418 1423 1426 1431 1435 1438 1443 1448 1452 1455 1457 1461 1464 1467 1473 1472 1474 1475 1476 1477 1475 1471 1469 1467 1464 1461 1459 1456 1452 1448 1444 1437 1433 1432 1434 1436 1432 1436 1444 1459 1458 1457 1457 1466 1474
1406 1413 1418 1423 1428 1432 1435 1439 1443 1448 1452 1456 1458 1462 1466 1467 1471 1472 1474 1475 1475 1477 1477 1474 1472 1468 1466 1467 1466 1462 1463 1453 1452 1450 1446 1445 1444 1447 1443 1447 1456 1467 1456 1451 1449 1478 1474
1408 1414 1420 1424 1429 1432 1436 1440 1444 1449 1453 1457 1460 1464 1466 1468 1471 1471 1473 1474 1476 1476 1479 1475 1475 1473 1471 1473 1473 1470 1466 1463 1458 1453 1451 1455 1454 1461 1455 1458 1467 1471 1462 1465 1477 1478 1478
1411 1416 1421 1426 1430 1432 1437 1441 1444 1449 1454 1459 1462 1464 1467 1469 1471 1470 1471 1473 1474 1475 1476 1477 1478 1476 1476 1477 1476 1475 1471 1470 1465 1464 1455 1462 1464 1468 1470 1478 1483 1481 1479 1479 1479 1479 1478